Location: Firdgum
(53.2488°N, 5.5615°E)
Time: 06:34:24
(UTC+00:00)

Meteor 1-27 Rocket - Pass Details

Date: 08 December 2019
Orbit: 830 x 909 km, 81.3° (Epoch: 26 January)

Event Time Altitude Azimuth Distance (km) Brightness Sun altitude
Exits shadow 04:58:31 40° 243° (WSW) 1,315 4.3 -22.5°
Drops below altitude 10° 05:03:05 10° 198° (SSW) 2,585 6.1 -21.9°
Sets 05:05:37 0° 192° (SSW) 3,516 6.9 -21.5°
